| time (UTC) | temp F | wind direction | speed knots | gust knots | rain 1hr in | rain 24hr in | rain mn in | humidity % | barometer mb |
| 20260505073020 | 68 | 251 | 4.3 | 6.1 | 0.00 | 0.00 | 0.00 | 51 | 1007.7 |
| 20260505072515 | 68 | 248 | 5.2 | 7.8 | 0.00 | 0.00 | 0.00 | 51 | 1007.6 |
| 20260505072011 | 68 | 264 | 2.6 | 9.6 | 0.00 | 0.00 | 0.00 | 51 | 1007.4 |
| 20260505071507 | 68 | 307 | 3.5 | 7.8 | 0.00 | 0.00 | 0.00 | 51 | 1007.3 |
| 20260505071005 | 68 | 226 | 2.6 | 5.2 | 0.00 | 0.00 | 0.00 | 51 | 1007.6 |
| 20260505070502 | 68 | 285 | 1.7 | 9.6 | 0.00 | 0.00 | 0.00 | 51 | 1007.5 |
| 20260505065957 | 68 | 250 | 10.4 | 12.2 | 0.00 | 0.00 | 0.00 | 51 | 1007.4 |
| 20260505065454 | 68 | 266 | 3.5 | 9.6 | 0.00 | 0.00 | 0.00 | 51 | 1007.6 |
| 20260505064951 | 68 | 256 | 3.5 | 6.1 | 0.00 | 0.00 | 0.00 | 51 | 1007.2 |
| 20260505064448 | 68 | 278 | 1.7 | 6.1 | 0.00 | 0.00 | 0.00 | 51 | 1007.4 |
| 20260505063946 | 68 | 261 | 3.5 | 7.0 | 0.00 | 0.00 | 0.00 | 50 | 1007.6 |
| 20260505063442 | 68 | 266 | 2.6 | 4.3 | 0.00 | 0.00 | 0.00 | 50 | 1007.6 |
| 20260505062939 | 68 | 241 | 4.3 | 7.0 | 0.00 | 0.00 | 0.00 | 50 | 1007.6 |
| 20260505062436 | 68 | 249 | 6.1 | 10.4 | 0.00 | 0.00 | 0.00 | 50 | 1007.6 |
| 20260505061933 | 68 | 267 | 5.2 | 6.1 | 0.00 | 0.00 | 0.00 | 51 | 1007.6 |
| 20260505061431 | 68 | 218 | 1.7 | 5.2 | 0.00 | 0.00 | 0.00 | 51 | 1007.7 |
| 20260505060928 | 68 | 184 | 1.7 | 7.8 | 0.00 | 0.00 | 0.00 | 51 | 1007.4 |
| 20260505060425 | 68 | 252 | 3.5 | 6.1 | 0.00 | 0.00 | 0.00 | 50 | 1007.2 |
| 20260505055921 | 69 | 262 | 4.3 | 5.2 | 0.00 | 0.00 | 0.00 | 50 | 1007.5 |
| 20260505055418 | 69 | 298 | 3.5 | 7.8 | 0.00 | 0.00 | 0.00 | 50 | 1007.3 |
| 20260505054914 | 69 | 245 | 3.5 | 7.8 | 0.00 | 0.00 | 0.00 | 50 | 1007.1 |
| 20260505054412 | 69 | 278 | 2.6 | 5.2 | 0.00 | 0.00 | 0.00 | 50 | 1007.1 |
| 20260505053910 | 69 | 218 | 1.7 | 5.2 | 0.00 | 0.00 | 0.00 | 50 | 1006.9 |
| 20260505053406 | 69 | 257 | 3.5 | 6.1 | 0.00 | 0.00 | 0.00 | 50 | 1007.0 |
| 20260505052903 | 69 | 278 | 4.3 | 7.0 | 0.00 | 0.00 | 0.00 | 49 | 1006.9 |
| 20260505052400 | 69 | 305 | 0.9 | 4.3 | 0.00 | 0.00 | 0.00 | 50 | 1007.1 |
| 20260505051857 | 69 | 273 | 3.5 | 5.2 | 0.00 | 0.00 | 0.00 | 49 | 1006.7 |
| 20260505051354 | 69 | 254 | 7.0 | 7.0 | 0.00 | 0.00 | 0.00 | 49 | 1006.9 |
| 20260505050852 | 70 | 277 | 3.5 | 5.2 | 0.00 | 0.00 | 0.00 | 49 | 1007.2 |
| 20260505050351 | 70 | 235 | 2.6 | 3.5 | 0.00 | 0.00 | 0.00 | 49 | 1007.2 |
| 20260505041318 | 70 | 267 | 3.5 | 6.1 | 0.00 | 0.00 | 0.00 | 50 | 1007.5 |
| 20260505040815 | 70 | 255 | 3.5 | 7.8 | 0.00 | 0.00 | 0.00 | 50 | 1007.7 |
| 20260505040313 | 70 | 215 | 1.7 | 7.0 | 0.00 | 0.00 | 0.00 | 50 | 1007.7 |
| 20260505035809 | 70 | 321 | 0.0 | 7.0 | 0.00 | 0.00 | 0.00 | 50 | 1007.6 |
| 20260505035305 | 70 | 237 | 5.2 | 7.8 | 0.00 | 0.00 | 0.00 | 50 | 1007.6 |
| 20260505034802 | 70 | 265 | 1.7 | 7.0 | 0.00 | 0.00 | 0.00 | 50 | 1007.7 |
| 20260505034259 | 70 | 261 | 5.2 | 5.2 | 0.00 | 0.00 | 0.00 | 50 | 1007.6 |
| 20260505033756 | 70 | 328 | 1.7 | 2.6 | 0.00 | 0.00 | 0.00 | 51 | 1007.5 |
| 20260505033253 | 69 | 268 | 2.6 | 5.2 | 0.00 | 0.00 | 0.00 | 51 | 1007.8 |
| 20260505032751 | 69 | 232 | 1.7 | 5.2 | 0.00 | 0.00 | 0.00 | 52 | 1007.8 |
| 20260505032247 | 69 | 247 | 2.6 | 7.0 | 0.00 | 0.00 | 0.00 | 52 | 1007.5 |
| 20260505031744 | 69 | 148 | 1.7 | 5.2 | 0.00 | 0.00 | 0.00 | 52 | 1007.6 |
| 20260505031240 | 69 | 256 | 2.6 | 5.2 | 0.00 | 0.00 | 0.00 | 53 | 1007.7 |
| 20260505030738 | 69 | 304 | 2.6 | 3.5 | 0.00 | 0.00 | 0.00 | 53 | 1007.6 |
| 20260505030234 | 69 | 279 | 0.0 | 0.9 | 0.00 | 0.00 | 0.00 | 54 | 1007.6 |
| 20260505025729 | 69 | 64 | 0.9 | 1.7 | 0.00 | 0.00 | 0.00 | 54 | 1007.3 |
| 20260505025228 | 69 | 312 | 0.9 | 1.7 | 0.00 | 0.00 | 0.00 | 54 | 1007.4 |
| 20260505024726 | 69 | 46 | 0.0 | 0.9 | 0.00 | 0.00 | 0.00 | 54 | 1007.4 |
| 20260505024223 | 68 | 292 | 1.7 | 1.7 | 0.00 | 0.00 | 0.00 | 54 | 1007.3 |
| 20260505023720 | 69 | 81 | 0.0 | 0.0 | 0.00 | 0.00 | 0.00 | 54 | 1007.2 |
| 20260505023217 | 69 | 2 | 0.9 | 1.7 | 0.00 | 0.00 | 0.00 | 55 | 1007.2 |
| 20260505022715 | 69 | 268 | 0.0 | 3.5 | 0.00 | 0.00 | 0.00 | 55 | 1007.2 |
| 20260505022211 | 69 | 173 | 0.0 | 0.9 | 0.00 | 0.00 | 0.00 | 55 | 1007.0 |
| 20260505021708 | 69 | 47 | 0.0 | 0.9 | 0.00 | 0.00 | 0.00 | 54 | 1007.0 |
| 20260505021205 | 69 | 257 | 0.0 | 2.6 | 0.00 | 0.00 | 0.00 | 55 | 1007.0 |
| 20260505020701 | 69 | 103 | 0.0 | 0.9 | 0.00 | 0.00 | 0.00 | 54 | 1006.6 |
| 20260505020156 | 69 | 39 | 0.0 | 0.0 | 0.00 | 0.00 | 0.00 | 54 | 1006.9 |
| 20260505015654 | 69 | 270 | 1.7 | 3.5 | 0.00 | 0.00 | 0.00 | 54 | 1006.5 |
| 20260505015150 | 70 | 299 | 0.0 | 1.7 | 0.00 | 0.00 | 0.00 | 54 | 1006.4 |
| 20260505014648 | 70 | 15 | 0.0 | 2.6 | 0.00 | 0.00 | 0.00 | 53 | 1006.4 |
| 20260505014145 | 70 | 100 | 0.0 | 0.9 | 0.00 | 0.00 | 0.00 | 53 | 1006.4 |
| 20260505013642 | 70 | 2 | 0.0 | 1.7 | 0.00 | 0.00 | 0.00 | 52 | 1006.5 |
| 20260505013139 | 70 | 22 | 0.0 | 0.0 | 0.00 | 0.00 | 0.00 | 52 | 1006.4 |
| 20260505012637 | 71 | 328 | 0.0 | 0.9 | 0.00 | 0.00 | 0.00 | 52 | 1006.2 |
| 20260505012134 | 71 | 90 | 0.0 | 1.7 | 0.00 | 0.00 | 0.00 | 51 | 1006.2 |
| 20260505011629 | 71 | 148 | 0.0 | 2.6 | 0.00 | 0.00 | 0.00 | 51 | 1006.3 |
| 20260505011128 | 71 | 10 | 0.0 | 0.9 | 0.00 | 0.00 | 0.00 | 50 | 1006.1 |
| 20260505010627 | 72 | 263 | 1.7 | 2.6 | 0.00 | 0.00 | 0.00 | 49 | 1006.1 |
| 20260505010124 | 72 | 49 | 0.0 | 2.6 | 0.00 | 0.00 | 0.00 | 49 | 1006.3 |
| 20260505005620 | 72 | 203 | 0.9 | 1.7 | 0.00 | 0.00 | 0.00 | 48 | 1006.2 |
| 20260505005118 | 72 | 196 | 0.0 | 0.9 | 0.00 | 0.00 | 0.00 | 48 | 1006.2 |
| 20260505004615 | 73 | 256 | 0.0 | 1.7 | 0.00 | 0.00 | 0.00 | 47 | 1006.2 |
| 20260505004112 | 73 | 262 | 1.7 | 1.7 | 0.00 | 0.00 | 0.00 | 47 | 1006.3 |
| 20260505003609 | 73 | 294 | 0.0 | 1.7 | 0.00 | 0.00 | 0.00 | 46 | 1006.2 |
| 20260505003106 | 73 | 254 | 0.9 | 4.3 | 0.00 | 0.00 | 0.00 | 46 | 1006.1 |
| 20260505002601 | 73 | 253 | 0.9 | 1.7 | 0.00 | 0.00 | 0.00 | 45 | 1006.1 |
| 20260505002101 | 74 | 259 | 3.5 | 4.3 | 0.00 | 0.00 | 0.00 | 45 | 1006.1 |
| 20260505001557 | 74 | 106 | 0.9 | 3.5 | 0.00 | 0.00 | 0.00 | 44 | 1006.2 |
| 20260505001054 | 74 | 230 | 0.0 | 2.6 | 0.00 | 0.00 | 0.00 | 44 | 1006.4 |
| 20260505000552 | 75 | 227 | 0.0 | 4.3 | 0.00 | 0.00 | 0.00 | 43 | 1006.4 |
| 20260505000049 | 75 | 279 | 1.7 | 1.7 | 0.00 | 0.00 | 0.00 | 43 | 1006.3 |
| 20260504235546 | 75 | 243 | 0.9 | 2.6 | 0.00 | 0.00 | 0.00 | 43 | 1006.5 |
| 20260504235043 | 75 | 281 | 5.2 | 5.2 | 0.00 | 0.00 | 0.00 | 42 | 1006.6 |
| 20260504234539 | 76 | 253 | 3.5 | 7.8 | 0.00 | 0.00 | 0.00 | 41 | 1006.6 |
| 20260504234037 | 76 | 312 | 0.9 | 4.3 | 0.00 | 0.00 | 0.00 | 41 | 1006.7 |
| 20260504233532 | 76 | 328 | 1.7 | 7.8 | 0.00 | 0.00 | 0.00 | 41 | 1007.0 |
| 20260504233029 | 76 | 227 | 2.6 | 9.6 | 0.00 | 0.00 | 0.00 | 40 | 1006.9 |
| 20260504232526 | 77 | 312 | 3.5 | 9.6 | 0.00 | 0.00 | 0.00 | 40 | 1007.0 |
| 20260504232024 | 77 | 6 | 1.7 | 8.7 | 0.00 | 0.00 | 0.00 | 39 | 1007.2 |
| 20260504231520 | 77 | 249 | 3.5 | 9.6 | 0.00 | 0.00 | 0.00 | 38 | 1007.0 |
| 20260504231016 | 77 | 251 | 7.8 | 8.7 | 0.00 | 0.00 | 0.00 | 38 | 1007.2 |
| 20260504230513 | 78 | 252 | 7.0 | 7.8 | 0.00 | 0.00 | 0.00 | 38 | 1007.0 |
| 20260504230012 | 78 | 237 | 6.1 | 9.6 | 0.00 | 0.00 | 0.00 | 38 | 1007.0 |
| 20260504225508 | 78 | 320 | 0.0 | 6.1 | 0.00 | 0.00 | 0.00 | 39 | 1007.2 |
| 20260504225005 | 78 | 258 | 7.0 | 8.7 | 0.00 | 0.00 | 0.00 | 38 | 1007.3 |
| 20260504224502 | 78 | 281 | 4.3 | 9.6 | 0.00 | 0.00 | 0.00 | 38 | 1007.2 |
| 20260504223959 | 78 | 271 | 4.3 | 7.8 | 0.00 | 0.00 | 0.00 | 38 | 1007.1 |
| 20260504223455 | 78 | 167 | 2.6 | 5.2 | 0.00 | 0.00 | 0.00 | 38 | 1007.2 |
| 20260504222951 | 78 | 256 | 5.2 | 10.4 | 0.00 | 0.00 | 0.00 | 38 | 1007.2 |
| 20260504222449 | 78 | 256 | 9.6 | 14.8 | 0.00 | 0.00 | 0.00 | 37 | 1007.1 |
| 20260504221946 | 78 | 248 | 10.4 | 11.3 | 0.00 | 0.00 | 0.00 | 38 | 1007.1 |
| 20260504221443 | 78 | 244 | 7.0 | 7.8 | 0.00 | 0.00 | 0.00 | 41 | 1007.1 |
| 20260504220940 | 78 | 316 | 0.9 | 4.3 | 0.00 | 0.00 | 0.00 | 43 | 1007.0 |
| 20260504220436 | 77 | 249 | 3.5 | 3.5 | 0.00 | 0.00 | 0.00 | 44 | 1007.1 |
| 20260504215934 | 77 | 191 | 1.7 | 3.5 | 0.00 | 0.00 | 0.00 | 43 | 1007.1 |
| 20260504215430 | 77 | 173 | 1.7 | 1.7 | 0.00 | 0.00 | 0.00 | 43 | 1007.3 |
| 20260504214927 | 77 | 180 | 0.0 | 2.6 | 0.00 | 0.00 | 0.00 | 43 | 1007.4 |
| 20260504214423 | 77 | 176 | 1.7 | 1.7 | 0.00 | 0.00 | 0.00 | 42 | 1007.5 |
| 20260504213920 | 77 | 134 | 1.7 | 3.5 | 0.00 | 0.00 | 0.00 | 42 | 1007.5 |
| 20260504213416 | 78 | 220 | 0.0 | 4.3 | 0.00 | 0.00 | 0.00 | 42 | 1007.5 |
| 20260504212914 | 78 | 260 | 0.9 | 3.5 | 0.00 | 0.00 | 0.00 | 40 | 1007.7 |
| 20260504212409 | 78 | 286 | 1.7 | 4.3 | 0.00 | 0.00 | 0.00 | 41 | 1007.8 |
| 20260504211907 | 78 | 93 | 1.7 | 2.6 | 0.00 | 0.00 | 0.00 | 40 | 1007.9 |
| 20260504211403 | 77 | 262 | 1.7 | 7.0 | 0.00 | 0.00 | 0.00 | 40 | 1008.0 |
| 20260504210900 | 77 | 292 | 0.9 | 5.2 | 0.00 | 0.00 | 0.00 | 39 | 1008.0 |
| 20260504210357 | 78 | 249 | 3.5 | 7.0 | 0.00 | 0.00 | 0.00 | 38 | 1008.0 |
| 20260504205854 | 78 | 193 | 1.7 | 9.6 | 0.00 | 0.00 | 0.00 | 39 | 1008.0 |
| 20260504205352 | 78 | 301 | 1.7 | 9.6 | 0.00 | 0.00 | 0.00 | 38 | 1008.3 |
| 20260504204850 | 78 | 250 | 4.3 | 10.4 | 0.00 | 0.00 | 0.00 | 37 | 1007.9 |
| 20260504204348 | 77 | 337 | 2.6 | 9.6 | 0.00 | 0.00 | 0.00 | 39 | 1008.3 |
| 20260504203848 | 78 | 184 | 1.7 | 3.5 | 0.00 | 0.00 | 0.00 | 41 | 1008.3 |
| 20260504203344 | 78 | 290 | 1.7 | 9.6 | 0.00 | 0.00 | 0.00 | 39 | 1008.2 |
| 20260504202840 | 78 | 244 | 3.5 | 11.3 | 0.00 | 0.00 | 0.00 | 43 | 1008.2 |
| 20260504202337 | 77 | 233 | 1.7 | 7.8 | 0.00 | 0.00 | 0.00 | 43 | 1008.3 |
| 20260504201833 | 76 | 221 | 3.5 | 8.7 | 0.00 | 0.00 | 0.00 | 43 | 1008.4 |
| 20260504201331 | 76 | 269 | 8.7 | 11.3 | 0.00 | 0.00 | 0.00 | 43 | 1008.5 |
| 20260504200828 | 76 | 336 | 5.2 | 11.3 | 0.00 | 0.00 | 0.00 | 43 | 1008.8 |
| 20260504200325 | 77 | 291 | 6.1 | 7.8 | 0.00 | 0.00 | 0.00 | 42 | 1008.7 |
| 20260504195821 | 76 | 349 | 0.0 | 5.2 | 0.00 | 0.00 | 0.00 | 43 | 1008.7 |
| 20260504195317 | 75 | 259 | 4.3 | 7.0 | 0.00 | 0.00 | 0.00 | 44 | 1008.8 |
| 20260504194814 | 75 | 231 | 1.7 | 9.6 | 0.00 | 0.00 | 0.00 | 44 | 1009.0 |
| 20260504194310 | 75 | 236 | 4.3 | 8.7 | 0.00 | 0.00 | 0.00 | 43 | 1009.2 |
| 20260504193806 | 75 | 256 | 4.3 | 8.7 | 0.00 | 0.00 | 0.00 | 44 | 1009.3 |
| 20260504193304 | 75 | 243 | 7.0 | 9.6 | 0.00 | 0.00 | 0.00 | 44 | 1009.1 |
| 20260504192802 | 75 | 299 | 6.1 | 11.3 | 0.00 | 0.00 | 0.00 | 44 | 1009.3 |
| 20260504192300 | 74 | 313 | 3.5 | 9.6 | 0.00 | 0.00 | 0.00 | 46 | 1009.4 |
| 20260504191758 | 74 | 320 | 3.5 | 7.8 | 0.00 | 0.00 | 0.00 | 46 | 1009.5 |
| 20260504191255 | 74 | 306 | 5.2 | 7.8 | 0.00 | 0.00 | 0.00 | 48 | 1009.4 |
| 20260504190750 | 74 | 243 | 6.1 | 6.1 | 0.00 | 0.00 | 0.00 | 48 | 1009.5 |
| 20260504190247 | 74 | 332 | 5.2 | 6.1 | 0.00 | 0.00 | 0.00 | 49 | 1009.6 |
| 20260504185743 | 74 | 270 | 5.2 | 7.8 | 0.00 | 0.00 | 0.00 | 49 | 1009.7 |
| 20260504185241 | 73 | 262 | 2.6 | 4.3 | 0.00 | 0.00 | 0.00 | 51 | 1009.7 |
| 20260504184737 | 72 | 314 | 3.5 | 7.8 | 0.00 | 0.00 | 0.00 | 51 | 1010.1 |
| 20260504184232 | 71 | 263 | 2.6 | 7.0 | 0.00 | 0.00 | 0.00 | 52 | 1009.8 |
| 20260504183728 | 71 | 265 | 5.2 | 8.7 | 0.00 | 0.00 | 0.00 | 52 | 1009.8 |
| 20260504183226 | 71 | 254 | 3.5 | 5.2 | 0.00 | 0.00 | 0.00 | 52 | 1009.8 |
| 20260504182724 | 72 | 259 | 7.0 | 9.6 | 0.00 | 0.00 | 0.00 | 51 | 1009.9 |
| 20260504182221 | 71 | 342 | 1.7 | 7.0 | 0.00 | 0.00 | 0.00 | 52 | 1009.8 |
| 20260504181718 | 71 | 265 | 6.1 | 7.0 | 0.00 | 0.00 | 0.00 | 52 | 1009.8 |
| 20260504181215 | 70 | 348 | 4.3 | 5.2 | 0.00 | 0.00 | 0.00 | 51 | 1009.7 |
| 20260504180714 | 71 | 152 | 3.5 | 7.8 | 0.00 | 0.00 | 0.00 | 51 | 1009.7 |
| 20260504180213 | 70 | 303 | 5.2 | 13.0 | 0.00 | 0.00 | 0.00 | 51 | 1009.6 |
| 20260504175710 | 70 | 339 | 2.6 | 14.8 | 0.00 | 0.00 | 0.00 | 51 | 1009.5 |
| 20260504175206 | 70 | 276 | 6.1 | 8.7 | 0.00 | 0.00 | 0.00 | 50 | 1009.3 |
| 20260504174704 | 70 | 274 | 5.2 | 12.2 | 0.00 | 0.00 | 0.00 | 51 | 1009.4 |
| 20260504174202 | 71 | 265 | 7.0 | 9.6 | 0.00 | 0.00 | 0.00 | 49 | 1009.6 |
| 20260504173658 | 71 | 129 | 1.7 | 7.8 | 0.00 | 0.00 | 0.00 | 50 | 1009.3 |
| 20260504173155 | 71 | 254 | 5.2 | 7.0 | 0.00 | 0.00 | 0.00 | 49 | 1009.3 |
| 20260504172652 | 71 | 195 | 0.9 | 13.0 | 0.00 | 0.00 | 0.00 | 50 | 1009.3 |
| 20260504172148 | 70 | 263 | 5.2 | 9.6 | 0.00 | 0.00 | 0.00 | 51 | 1009.5 |
| 20260504171644 | 70 | 198 | 1.7 | 8.7 | 0.00 | 0.00 | 0.00 | 53 | 1009.6 |
| 20260504171142 | 70 | 254 | 7.8 | 13.0 | 0.00 | 0.00 | 0.00 | 51 | 1009.5 |
| 20260504170638 | 70 | 255 | 1.7 | 8.7 | 0.00 | 0.00 | 0.00 | 52 | 1009.1 |
| 20260504170136 | 71 | 232 | 1.7 | 3.5 | 0.00 | 0.00 | 0.00 | 53 | 1008.9 |
| 20260504151027 | 66 | 243 | 1.7 | 4.3 | 0.00 | 0.00 | 0.00 | 56 | 1010.1 |
| 20260504150525 | 65 | 262 | 3.5 | 3.5 | 0.00 | 0.00 | 0.00 | 57 | 1010.0 |
| 20260504140950 | 63 | 69 | 1.7 | 4.3 | 0.00 | 0.00 | 0.00 | 57 | 1010.1 |
| 20260504140447 | 62 | 231 | 1.7 | 6.1 | 0.00 | 0.00 | 0.00 | 58 | 1010.2 |
| 20260504130412 | 58 | 141 | 2.6 | 2.6 | 0.00 | 0.00 | 0.00 | 63 | 1010.7 |
| 20260504110259 | 55 | 251 | 0.9 | 5.2 | 0.00 | 0.00 | 0.00 | 60 | 1010.6 |
| 20260504100222 | 54 | 271 | 0.0 | 1.7 | 0.00 | 0.00 | 0.00 | 59 | 1010.9 |
| 20260504081615 | 52 | 14 | 2.6 | 4.3 | 0.00 | 0.00 | 0.00 | 63 | 1011.5 |
| 20260504081111 | 52 | 352 | 0.0 | 2.6 | 0.00 | 0.00 | 0.00 | 62 | 1011.6 |
| 20260504080608 | 52 | 340 | 0.9 | 2.6 | 0.00 | 0.00 | 0.00 | 61 | 1011.8 |
| 20260504080105 | 52 | 2 | 0.0 | 4.3 | 0.00 | 0.00 | 0.00 | 61 | 1011.4 |